TimeEDT,TemperatureF,Dew PointF,Humidity,Sea Level PressureIn,VisibilityMPH,Wind Direction,Wind SpeedMPH,Gust SpeedMPH,PrecipitationIn,Events,Conditions,WindDirDegrees,DateUTC
12:53 AM,54.0,52.0,93,30.35,7.0,Calm,Calm,-,N/A,,Clear,0,2013-08-25 04:53:00
1:53 AM,53.1,51.1,93,30.35,7.0,Calm,Calm,-,N/A,,Clear,0,2013-08-25 05:53:00
2:53 AM,52.0,50.0,93,30.35,5.0,Calm,Calm,-,N/A,,Clear,0,2013-08-25 06:53:00
3:53 AM,51.1,48.9,92,30.35,5.0,Calm,Calm,-,0.01,,Clear,0,2013-08-25 07:53:00
4:11 AM,51.8,48.2,88,30.36,7.0,Calm,Calm,-,N/A,,Scattered Clouds,0,2013-08-25 08:11:00
4:18 AM,51.8,50.0,94,30.36,2.5,Calm,Calm,-,N/A,,Mostly Cloudy,0,2013-08-25 08:18:00
4:32 AM,51.8,51.8,100,30.37,5.0,Calm,Calm,-,N/A,,Overcast,0,2013-08-25 08:32:00
4:51 AM,51.8,51.8,100,30.38,1.2,Calm,Calm,-,N/A,,Overcast,0,2013-08-25 08:51:00
4:53 AM,53.1,51.1,93,30.38,0.8,Calm,Calm,-,N/A,,Overcast,0,2013-08-25 08:53:00
5:53 AM,54.0,54.0,100,30.39,0.2,Calm,Calm,-,N/A,Fog,Fog,0,2013-08-25 09:53:00
6:53 AM,55.9,55.0,97,30.41,0.2,Calm,Calm,-,N/A,Fog,Fog,0,2013-08-25 10:53:00
7:53 AM,55.0,54.0,96,30.43,0.2,Calm,Calm,-,N/A,Fog,Fog,0,2013-08-25 11:53:00
8:53 AM,57.0,57.0,100,30.43,0.2,Calm,Calm,-,N/A,Fog,Fog,0,2013-08-25 12:53:00
9:24 AM,57.2,57.2,100,30.42,1.2,Calm,Calm,-,N/A,,Overcast,0,2013-08-25 13:24:00
9:30 AM,57.2,57.2,100,30.42,3.0,Calm,Calm,-,N/A,,Overcast,0,2013-08-25 13:30:00
9:53 AM,60.1,59.0,96,30.43,6.0,Calm,Calm,-,N/A,,Overcast,0,2013-08-25 13:53:00
10:10 AM,64.4,57.2,77,30.42,10.0,Calm,Calm,-,N/A,,Scattered Clouds,0,2013-08-25 14:10:00
10:53 AM,69.1,60.1,73,30.41,10.0,Calm,Calm,-,N/A,,Clear,0,2013-08-25 14:53:00
11:53 AM,75.0,61.0,62,30.38,10.0,SSE,4.6,-,N/A,,Clear,150,2013-08-25 15:53:00
12:53 PM,79.0,57.9,48,30.36,10.0,Variable,4.6,-,N/A,,Clear,0,2013-08-25 16:53:00
1:53 PM,79.0,57.9,48,30.34,10.0,SE,8.1,-,N/A,,Partly Cloudy,140,2013-08-25 17:53:00
2:53 PM,81.0,57.9,45,30.32,10.0,SSE,8.1,-,N/A,,Partly Cloudy,160,2013-08-25 18:53:00
3:53 PM,81.0,60.1,49,30.30,10.0,Variable,5.8,-,N/A,,Scattered Clouds,0,2013-08-25 19:53:00
4:53 PM,80.1,57.9,47,30.27,10.0,SE,8.1,-,N/A,,Clear,140,2013-08-25 20:53:00
5:53 PM,80.1,57.9,47,30.25,10.0,SSE,6.9,-,N/A,,Clear,150,2013-08-25 21:53:00
6:53 PM,77.0,57.9,52,30.24,10.0,South,6.9,-,N/A,,Clear,170,2013-08-25 22:53:00
7:53 PM,72.0,60.1,66,30.24,10.0,South,3.5,-,N/A,,Clear,180,2013-08-25 23:53:00
8:53 PM,66.0,61.0,84,30.25,10.0,Calm,Calm,-,N/A,,Clear,0,2013-08-26 00:53:00
9:53 PM,66.0,61.0,84,30.25,10.0,Calm,Calm,-,N/A,,Clear,0,2013-08-26 01:53:00
10:53 PM,66.0,60.1,81,30.25,10.0,Calm,Calm,-,N/A,,Mostly Cloudy,0,2013-08-26 02:53:00
11:53 PM,64.9,60.1,84,30.24,10.0,Calm,Calm,-,N/A,,Clear,0,2013-08-26 03:53:00